1 Minute Report
Date Time Wind Direction Wind Speed Wind Gust Wind Variable Altimeter Temperature Dewpoint Relative Humidity Visibility Ceiling Precip Present Weather Density Alt Wind Chill Heat Index
17/03/24 12:11 160 10 N/A N/A 30.24 33(F), 1(C) 13(F), -11(C) 40% 10 SCT044 SCT050 OVC065 N/A N/A N/A 25 F N/A 1751
17/03/24 12:10 160 10 N/A N/A 30.24 33(F), 1(C) 13(F), -11(C) 40% 10 SCT044 SCT050 OVC065 N/A N/A N/A 25 F N/A 1750
17/03/24 12:09 150 10 N/A N/A 30.24 33(F), 1(C) 13(F), -11(C) 40% 10 SCT044 SCT050 OVC065 N/A N/A N/A 25 F N/A 1749
17/03/24 12:08 150 11 N/A N/A 30.24 33(F), 1(C) 13(F), -11(C) 40% 10 SCT044 SCT050 OVC065 N/A N/A N/A 24 F N/A 1748
17/03/24 12:07 160 11 N/A N/A 30.24 33(F), 1(C) 13(F), -11(C) 40% 10 SCT044 SCT050 OVC065 N/A N/A N/A 24 F N/A 1747
17/03/24 12:06 160 09 N/A N/A 30.24 33(F), 1(C) 13(F), -11(C) 40% 10 SCT044 SCT050 OVC065 N/A N/A N/A 25 F N/A 1746
17/03/24 12:05 160 09 N/A N/A 30.24 33(F), 1(C) 13(F), -11(C) 40% 10 SCT044 SCT050 OVC065 N/A N/A N/A 25 F N/A 1745
17/03/24 12:04 150 09 N/A N/A 30.24 33(F), 1(C) 13(F), -11(C) 40% 10 SCT044 SCT050 OVC065 N/A N/A N/A 25 F N/A 1744
17/03/24 12:03 150 09 N/A N/A 30.25 33(F), 1(C) 13(F), -11(C) 40% 10 SCT050 OVC065 N/A N/A N/A 25 F N/A 1743
17/03/24 12:02 160 09 N/A N/A 30.25 33(F), 1(C) 13(F), -11(C) 40% 10 SCT050 OVC065 N/A N/A N/A 25 F N/A 1742
17/03/24 12:01 160 09 N/A N/A 30.24 33(F), 1(C) 12(F), -11(C) 40% 10 SCT050 OVC065 N/A N/A N/A 25 F N/A 1741
17/03/24 12:00 150 08 N/A N/A 30.24 33(F), 1(C) 12(F), -11(C) 40% 10 SCT050 BKN065 OVC075 N/A N/A N/A 26 F N/A 1740
17/03/24 11:59 150 08 N/A N/A 30.24 33(F), 1(C) 12(F), -11(C) 40% 10 SCT050 OVC065 N/A N/A N/A 26 F N/A 1739
17/03/24 11:58 150 07 N/A N/A 30.24 33(F), 1(C) 12(F), -11(C) 40% 10 SCT050 OVC065 N/A N/A N/A 27 F N/A 1738
17/03/24 11:57 150 06 N/A N/A 30.24 33(F), 1(C) 12(F), -11(C) 40% 10 SCT050 OVC065 N/A N/A N/A 27 F N/A 1737
17/03/24 11:56 140 07 N/A N/A 30.24 32(F), 0(C) 12(F), -11(C) 43% 10 SCT050 OVC065 N/A N/A N/A 25 F N/A 1736
17/03/24 11:55 140 07 N/A N/A 30.24 32(F), 0(C) 12(F), -11(C) 43% 10 SCT050 BKN065 OVC080 N/A N/A N/A 25 F N/A 1735
17/03/24 11:54 140 09 N/A N/A 30.24 32(F), 0(C) 12(F), -11(C) 43% 10 SCT050 BKN065 OVC080 N/A N/A N/A 24 F N/A 1734
17/03/24 11:53 140 09 N/A N/A 30.24 32(F), 0(C) 12(F), -11(C) 43% 10 SCT055 BKN065 OVC080 N/A N/A N/A 24 F N/A 1733
17/03/24 11:52 130 07 N/A N/A 30.25 32(F), 0(C) 12(F), -11(C) 43% 10 SCT055 BKN065 OVC080 N/A N/A N/A 25 F N/A 1732
17/03/24 11:51 130 07 N/A N/A 30.25 32(F), 0(C) 12(F), -11(C) 43% 10 BKN065 OVC080 N/A N/A N/A 25 F N/A 1731
17/03/24 11:50 130 08 N/A N/A 30.25 32(F), 0(C) 12(F), -11(C) 43% 10 BKN065 OVC080 N/A N/A N/A 25 F N/A 1730
17/03/24 11:49 130 08 N/A N/A 30.25 32(F), 0(C) 12(F), -11(C) 43% 10 SCT065 OVC080 N/A N/A N/A 25 F N/A 1729
17/03/24 11:48 130 08 N/A N/A 30.25 32(F), 0(C) 12(F), -11(C) 43% 10 SCT065 OVC080 N/A N/A N/A 25 F N/A 1728
17/03/24 11:47 130 07 N/A N/A 30.25 32(F), 0(C) 12(F), -11(C) 43% 10 SCT065 OVC080 N/A N/A N/A 25 F N/A 1727
17/03/24 11:46 130 07 N/A N/A 30.25 32(F), 0(C) 12(F), -11(C) 43% 10 SCT065 OVC080 N/A N/A N/A 25 F N/A 1726
17/03/24 11:45 130 07 N/A N/A 30.25 32(F), 0(C) 12(F), -11(C) 43% 10 SCT065 OVC080 N/A N/A N/A 25 F N/A 1725
17/03/24 11:44 140 08 N/A N/A 30.25 32(F), 0(C) 12(F), -11(C) 43% 10 SCT065 OVC080 N/A N/A N/A 25 F N/A 1724
17/03/24 11:43 140 08 N/A N/A 30.25 32(F), 0(C) 12(F), -11(C) 43% 10 SCT065 OVC080 N/A N/A N/A 25 F N/A 1723
17/03/24 11:42 140 08 N/A N/A 30.25 32(F), 0(C) 12(F), -11(C) 43% 10 OVC080 N/A N/A N/A 25 F N/A 1722
17/03/24 11:41 140 09 N/A N/A 30.25 32(F), 0(C) 12(F), -11(C) 43% 10 OVC080 N/A N/A N/A 24 F N/A 1721
17/03/24 11:40 140 09 N/A N/A 30.25 32(F), 0(C) 12(F), -11(C) 43% 10 OVC080 N/A N/A N/A 24 F N/A 1720
17/03/24 11:39 140 09 N/A N/A 30.25 32(F), 0(C) 12(F), -11(C) 43% 10 OVC080 N/A N/A N/A 24 F N/A 1719
17/03/24 11:38 140 10 N/A N/A 30.25 32(F), 0(C) 12(F), -11(C) 43% 10 OVC080 N/A N/A N/A 24 F N/A 1718
17/03/24 11:37 140 10 N/A N/A 30.25 32(F), 0(C) 12(F), -11(C) 43% 10 OVC080 N/A N/A N/A 24 F N/A 1717
17/03/24 11:36 140 10 N/A N/A 30.25 32(F), 0(C) 12(F), -11(C) 43% 10 OVC080 N/A N/A N/A 24 F N/A 1716
17/03/24 11:35 140 09 N/A N/A 30.25 32(F), 0(C) 12(F), -11(C) 43% 10 OVC080 N/A N/A N/A 24 F N/A 1715
17/03/24 11:34 140 09 N/A N/A 30.25 32(F), 0(C) 12(F), -11(C) 43% 10 OVC080 N/A N/A N/A 24 F N/A 1714
17/03/24 11:33 140 09 N/A N/A 30.25 32(F), 0(C) 12(F), -11(C) 43% 10 OVC080 N/A N/A N/A 24 F N/A 1713
17/03/24 11:32 140 09 N/A N/A 30.25 32(F), 0(C) 11(F), -12(C) 40% 10 OVC080 N/A N/A N/A 24 F N/A 1712
17/03/24 11:31 140 08 N/A N/A 30.26 32(F), 0(C) 11(F), -12(C) 40% 10 OVC080 N/A N/A N/A 25 F N/A 1711
17/03/24 11:30 140 07 N/A N/A 30.26 32(F), 0(C) 11(F), -12(C) 40% 10 OVC080 N/A N/A N/A 25 F N/A 1710
17/03/24 11:29 140 07 N/A N/A 30.26 32(F), 0(C) 11(F), -12(C) 40% 10 OVC080 N/A N/A N/A 25 F N/A 1709
17/03/24 11:28 140 07 N/A N/A 30.26 32(F), 0(C) 11(F), -12(C) 40% 10 OVC080 N/A N/A N/A 25 F N/A 1708
17/03/24 11:27 140 08 N/A N/A 30.26 32(F), 0(C) 12(F), -11(C) 43% 10 OVC090 N/A N/A N/A 25 F N/A 1707
17/03/24 11:26 140 07 N/A N/A 30.26 32(F), 0(C) 12(F), -11(C) 43% 10 OVC090 N/A N/A N/A 25 F N/A 1706
17/03/24 11:25 140 06 N/A N/A 30.26 32(F), 0(C) 12(F), -11(C) 43% 10 OVC090 N/A N/A N/A 26 F N/A 1705
17/03/24 11:24 140 06 N/A N/A 30.26 32(F), 0(C) 12(F), -11(C) 43% 10 OVC090 N/A N/A N/A 26 F N/A 1704
17/03/24 11:23 140 06 N/A N/A 30.26 32(F), 0(C) 12(F), -11(C) 43% 10 OVC090 N/A N/A N/A 26 F N/A 1703
17/03/24 11:22 150 06 N/A N/A 30.26 32(F), 0(C) 12(F), -11(C) 43% 10 OVC090 N/A N/A N/A 26 F N/A 1702
17/03/24 11:21 150 07 N/A N/A 30.25 32(F), 0(C) 12(F), -11(C) 43% 10 OVC090 N/A N/A N/A 25 F N/A 1701
17/03/24 11:20 150 08 N/A N/A 30.25 32(F), 0(C) 12(F), -11(C) 43% 10 OVC090 N/A N/A N/A 25 F N/A 1700
17/03/24 11:19 150 08 N/A N/A 30.25 32(F), 0(C) 12(F), -11(C) 43% 10 OVC090 N/A N/A N/A 25 F N/A 1699
17/03/24 11:18 150 08 N/A N/A 30.25 32(F), 0(C) 12(F), -11(C) 43% 10 OVC090 N/A N/A N/A 25 F N/A 1698
17/03/24 11:17 150 09 N/A N/A 30.25 32(F), 0(C) 12(F), -11(C) 43% 10 OVC090 N/A N/A N/A 24 F N/A 1697
17/03/24 11:16 140 08 N/A N/A 30.25 32(F), 0(C) 12(F), -11(C) 43% 10 OVC090 N/A N/A N/A 25 F N/A 1696
17/03/24 11:15 150 09 N/A N/A 30.25 32(F), 0(C) 11(F), -12(C) 40% 10 OVC090 N/A N/A N/A 24 F N/A 1695
17/03/24 11:14 150 09 N/A N/A 30.25 32(F), 0(C) 11(F), -12(C) 40% 10 OVC090 N/A N/A N/A 24 F N/A 1694
17/03/24 11:13 150 08 N/A N/A 30.25 32(F), 0(C) 11(F), -12(C) 40% 10 OVC090 N/A N/A N/A 25 F N/A 1693
17/03/24 11:12 150 08 N/A N/A 30.25 32(F), 0(C) 11(F), -12(C) 40% 10 OVC090 N/A N/A N/A 25 F N/A 1692
17/03/24 11:11 150 08 N/A N/A 30.25 32(F), 0(C) 11(F), -12(C) 40% 10 OVC090 N/A N/A N/A 25 F N/A 1691
17/03/24 11:10 150 09 N/A N/A 30.25 32(F), 0(C) 11(F), -12(C) 40% 10 OVC090 N/A N/A N/A 24 F N/A 1690
17/03/24 11:09 150 09 N/A N/A 30.25 32(F), 0(C) 11(F), -12(C) 40% 10 BKN090 OVC110 N/A N/A N/A 24 F N/A 1689
17/03/24 11:08 150 08 N/A N/A 30.25 32(F), 0(C) 11(F), -12(C) 40% 10 BKN090 OVC110 N/A N/A N/A 25 F N/A 1688
17/03/24 11:07 150 09 N/A N/A 30.25 32(F), 0(C) 11(F), -12(C) 40% 10 BKN090 OVC110 N/A N/A N/A 24 F N/A 1687
17/03/24 11:06 150 09 N/A N/A 30.25 32(F), 0(C) 11(F), -12(C) 40% 10 BKN090 OVC110 N/A N/A N/A 24 F N/A 1686
17/03/24 11:05 150 09 N/A N/A 30.25 32(F), 0(C) 11(F), -12(C) 40% 10 BKN090 OVC110 N/A N/A N/A 24 F N/A 1685
17/03/24 11:04 150 10 N/A N/A 30.25 32(F), 0(C) 11(F), -12(C) 40% 10 BKN090 OVC110 N/A N/A N/A 24 F N/A 1684
17/03/24 11:03 150 10 N/A N/A 30.25 32(F), 0(C) 11(F), -12(C) 40% 10 BKN090 OVC110 N/A N/A N/A 24 F N/A 1683
17/03/24 11:02 150 09 N/A N/A 30.25 32(F), 0(C) 11(F), -12(C) 40% 10 BKN090 OVC110 N/A N/A N/A 24 F N/A 1682
17/03/24 11:01 150 09 N/A N/A 30.25 32(F), 0(C) 11(F), -12(C) 40% 10 BKN090 OVC110 N/A N/A N/A 24 F N/A 1681
17/03/24 11:00 150 09 N/A N/A 30.24 32(F), 0(C) 11(F), -12(C) 40% 10 BKN090 OVC110 N/A N/A N/A 24 F N/A 1680
17/03/24 10:59 150 09 N/A N/A 30.24 32(F), 0(C) 10(F), -12(C) 40% 10 BKN090 OVC110 N/A N/A N/A 24 F N/A 1679
17/03/24 10:58 160 10 N/A N/A 30.24 32(F), 0(C) 10(F), -12(C) 40% 10 BKN090 OVC110 N/A N/A N/A 24 F N/A 1678
17/03/24 10:57 160 10 N/A N/A 30.24 32(F), 0(C) 10(F), -12(C) 40% 10 BKN090 OVC110 N/A N/A N/A 24 F N/A 1677
17/03/24 10:56 150 09 N/A N/A 30.24 32(F), 0(C) 10(F), -12(C) 40% 10 BKN090 OVC110 N/A N/A N/A 24 F N/A 1676
17/03/24 10:55 160 10 N/A N/A 30.24 32(F), 0(C) 10(F), -12(C) 40% 10 SCT075 BKN090 OVC110 N/A N/A N/A 24 F N/A 1675
17/03/24 10:54 160 11 N/A N/A 30.24 32(F), 0(C) 10(F), -12(C) 40% 10 SCT075 BKN090 OVC110 N/A N/A N/A 23 F N/A 1674
17/03/24 10:53 160 11 N/A N/A 30.24 32(F), 0(C) 10(F), -12(C) 40% 10 SCT075 BKN090 OVC110 N/A N/A N/A 23 F N/A 1673
17/03/24 10:52 160 11 14 N/A 30.24 32(F), 0(C) 10(F), -12(C) 40% 10 SCT075 BKN090 OVC110 N/A N/A N/A 23 F N/A 1672
17/03/24 10:51 160 11 14 N/A 30.24 32(F), 0(C) 10(F), -12(C) 40% 10 SCT075 BKN090 OVC110 N/A N/A N/A 23 F N/A 1671
17/03/24 10:50 160 11 14 N/A 30.24 32(F), 0(C) 10(F), -12(C) 40% 10 SCT075 BKN090 OVC110 N/A N/A N/A 23 F N/A 1670
17/03/24 10:49 160 10 14 N/A 30.24 32(F), 0(C) 10(F), -12(C) 40% 10 SCT075 BKN090 OVC110 N/A N/A N/A 24 F N/A 1669
17/03/24 10:48 160 10 14 N/A 30.24 32(F), 0(C) 09(F), -13(C) 37% 10 SCT075 BKN090 OVC110 N/A N/A N/A 24 F N/A 1668
17/03/24 10:47 160 10 14 N/A 30.24 32(F), 0(C) 09(F), -13(C) 37% 10 BKN075 BKN090 OVC110 N/A N/A N/A 24 F N/A 1667
17/03/24 10:46 160 10 14 N/A 30.24 32(F), 0(C) 09(F), -13(C) 37% 10 BKN075 BKN090 OVC110 N/A N/A N/A 24 F N/A 1666
17/03/24 10:45 170 11 14 N/A 30.24 32(F), 0(C) 09(F), -13(C) 37% 10 BKN075 OVC110 N/A N/A N/A 23 F N/A 1665
17/03/24 10:44 170 11 15 N/A 30.24 32(F), 0(C) 09(F), -13(C) 37% 10 BKN075 OVC110 N/A N/A N/A 23 F N/A 1664
17/03/24 10:43 170 10 15 N/A 30.24 32(F), 0(C) 09(F), -13(C) 37% 10 BKN075 OVC110 N/A N/A N/A 24 F N/A 1663
17/03/24 10:42 170 09 15 N/A 30.24 32(F), 0(C) 09(F), -13(C) 37% 10 BKN075 OVC110 N/A N/A N/A 24 F N/A 1662
17/03/24 10:41 180 08 15 N/A 30.24 32(F), 0(C) 09(F), -13(C) 37% 10 BKN075 OVC110 N/A N/A N/A 25 F N/A 1661
17/03/24 10:40 180 09 15 N/A 30.24 32(F), 0(C) 09(F), -13(C) 37% 10 BKN075 OVC110 N/A N/A N/A 24 F N/A 1660
17/03/24 10:39 180 10 15 N/A 30.24 32(F), 0(C) 09(F), -13(C) 37% 10 BKN075 OVC110 N/A N/A N/A 24 F N/A 1659
17/03/24 10:38 170 12 15 N/A 30.24 32(F), 0(C) 09(F), -13(C) 37% 10 OVC075 N/A N/A N/A 23 F N/A 1658
17/03/24 10:37 160 12 15 N/A 30.24 32(F), 0(C) 09(F), -13(C) 37% 10 OVC075 N/A N/A N/A 23 F N/A 1657
17/03/24 10:36 160 12 15 N/A 30.24 32(F), 0(C) 09(F), -13(C) 37% 10 OVC075 N/A N/A N/A 23 F N/A 1656
17/03/24 10:35 170 11 15 N/A 30.24 32(F), 0(C) 09(F), -13(C) 37% 10 OVC075 N/A N/A N/A 23 F N/A 1655
17/03/24 10:34 170 10 N/A N/A 30.24 32(F), 0(C) 09(F), -13(C) 37% 10 OVC075 N/A N/A N/A 24 F N/A 1654
17/03/24 10:33 160 11 N/A N/A 30.24 32(F), 0(C) 09(F), -13(C) 37% 10 OVC075 N/A N/A N/A 23 F N/A 1653
17/03/24 10:32 160 11 N/A N/A 30.24 32(F), 0(C) 09(F), -13(C) 37% 10 OVC075 N/A N/A N/A 23 F N/A 1652
17/03/24 10:31 170 10 N/A N/A 30.24 32(F), 0(C) 09(F), -13(C) 37% 10 OVC075 N/A N/A N/A 24 F N/A 1651
17/03/24 10:30 170 09 N/A N/A 30.24 32(F), 0(C) 09(F), -13(C) 37% 10 OVC075 N/A N/A N/A 24 F N/A 1650
17/03/24 10:29 170 08 14 N/A 30.24 32(F), 0(C) 09(F), -13(C) 37% 10 OVC075 N/A N/A N/A 25 F N/A 1649
17/03/24 10:28 170 09 14 N/A 30.24 32(F), 0(C) 09(F), -13(C) 37% 10 OVC075 N/A N/A N/A 24 F N/A 1648
17/03/24 10:27 170 07 14 N/A 30.25 32(F), 0(C) 09(F), -13(C) 37% 10 OVC075 N/A N/A N/A 25 F N/A 1647
17/03/24 10:26 180 06 14 N/A 30.25 32(F), 0(C) 09(F), -13(C) 37% 10 OVC075 N/A N/A N/A 26 F N/A 1646
17/03/24 10:25 170 08 15 N/A 30.24 32(F), 0(C) 09(F), -13(C) 37% 10 OVC075 N/A N/A N/A 25 F N/A 1645
17/03/24 10:24 170 10 15 N/A 30.24 32(F), 0(C) 09(F), -13(C) 37% 10 OVC075 N/A N/A N/A 24 F N/A 1644
17/03/24 10:23 170 10 15 N/A 30.24 32(F), 0(C) 09(F), -13(C) 37% 10 OVC075 N/A N/A N/A 24 F N/A 1643
17/03/24 10:22 170 10 15 N/A 30.24 32(F), 0(C) 09(F), -13(C) 37% 10 OVC075 N/A N/A N/A 24 F N/A 1642
17/03/24 10:21 170 10 15 N/A 30.24 32(F), 0(C) 09(F), -13(C) 37% 10 OVC075 N/A N/A N/A 24 F N/A 1641
17/03/24 10:20 170 09 15 N/A 30.24 32(F), 0(C) 09(F), -13(C) 37% 10 OVC075 N/A N/A N/A 24 F N/A 1640
17/03/24 10:19 170 09 15 N/A 30.24 32(F), 0(C) 08(F), -13(C) 37% 10 OVC075 N/A N/A N/A 24 F N/A 1639
17/03/24 10:18 170 10 15 N/A 30.24 32(F), 0(C) 08(F), -13(C) 37% 10 OVC075 N/A N/A N/A 24 F N/A 1638
17/03/24 10:17 170 12 15 N/A 30.24 32(F), 0(C) 08(F), -13(C) 37% 10 OVC075 N/A N/A N/A 23 F N/A 1637
17/03/24 10:16 170 10 18 N/A 30.24 32(F), 0(C) 08(F), -13(C) 37% 10 OVC075 N/A N/A N/A 24 F N/A 1636
17/03/24 10:15 170 09 18 N/A 30.24 32(F), 0(C) 08(F), -13(C) 37% 10 OVC075 N/A N/A N/A 24 F N/A 1635
17/03/24 10:14 170 10 18 N/A 30.24 32(F), 0(C) 08(F), -13(C) 37% 10 OVC075 N/A N/A N/A 24 F N/A 1634
17/03/24 10:13 170 11 18 N/A 30.24 32(F), 0(C) 08(F), -13(C) 37% 10 OVC075 N/A N/A N/A 23 F N/A 1633
17/03/24 10:12 180 12 18 N/A 30.24 32(F), 0(C) 08(F), -13(C) 37% 10 OVC075 N/A N/A N/A 23 F N/A 1632
17/03/24 10:11 180 12 18 N/A 30.24 32(F), 0(C) 08(F), -13(C) 37% 10 OVC075 N/A N/A N/A 23 F N/A 1631